�N����,����,����,����,����,�C��,���x,�~����,�S�V����,�ő�u�ԕ���,,,,,
,,,,,,,,,����,����,����,�N��,,
yyyy/mm/dd,hh:mm:ss,(16),16����,m/s,��,%,mm,KW/�u,(16),16����,m/s,Time,,
2016/1/1,1:00:00,13,���k��,1.9,-11.2,95.5,0,0,13,���k��,2.9,16,,
2016/1/1,2:00:00,13,���k��,1.6,-13.7,91.9,0,0,12,��,2.5,54,,
2016/1/1,3:00:00,12,��,2.4,-12.7,93.1,0,0,12,��,3.5,40,,
2016/1/1,4:00:00,12,��,2.4,-13,91.4,0,0,12,��,4.2,45,,
2016/1/1,5:00:00,12,��,2.9,-12.6,91.5,0,0,2,�k��,3.9,57,,
2016/1/1,6:00:00,12,��,2.5,-12.5,89.4,0,0,13,���k��,4,29,,
2016/1/1,7:00:00,13,���k��,2.8,-12.8,86.7,0,0.01,7,��쓌,4.6,40,,
2016/1/1,8:00:00,13,���k��,0.8,-12.8,85.6,0,0.09,12,��,4.4,30,,
2016/1/1,9:00:00,13,���k��,1.8,-10,78.4,0,0.26,12,��,3.6,32,,
2016/1/1,10:00:00,12,��,1.7,-6.8,73.5,0,0.41,13,���k��,2.3,56,,
2016/1/1,11:00:00,13,���k��,1.3,-1.4,56,0,0.49,13,���k��,2.3,4,,
2016/1/1,12:00:00,11,���쐼,0.9,0.3,37,0,0.53,12,��,2,48,,
2016/1/1,13:00:00,14,�k��,2,0.3,48.8,0,0.49,13,���k��,5.4,59,,
2016/1/1,14:00:00,13,���k��,3.6,0.3,44.5,0,0.4,8,��,5.6,54,,
2016/1/1,15:00:00,13,���k��,1.3,-0.2,46.6,0,0.25,13,���k��,5.9,8,,
2016/1/1,16:00:00,13,���k��,2.8,-2.3,64.3,0,0.08,14,�k��,5.1,34,,
2016/1/1,17:00:00,13,���k��,2.4,-3.2,69.8,0,0.01,14,�k��,5.1,26,,
2016/1/1,18:00:00,12,��,2.8,-5.6,76.7,0,0,13,���k��,4.9,23,,
2016/1/1,19:00:00,12,��,2,-5.9,75.4,0,0,13,���k��,4.1,41,,
2016/1/1,20:00:00,13,���k��,1.5,-7.9,79.5,0,0,13,���k��,2.7,32,,
2016/1/1,21:00:00,12,��,0.6,-10.3,92.9,0,0,11,���쐼,1.6,9,,
2016/1/1,22:00:00,12,��,2.1,-12.3,91.2,0,0,12,��,2.7,57,,
2016/1/1,23:00:00,12,��,1.9,-11.5,91.8,0,0,11,���쐼,3.1,51,,
2016/1/1,0:00:00,12,��,1.8,-12.7,90.4,0,0,12,��,2.7,42,,
2016/1/2,1:00:00,12,��,1.9,-12.5,92,0,0,13,���k��,3.7,38,,
2016/1/2,2:00:00,12,��,2.4,-13,92.5,0,0,11,���쐼,3.5,27,,
2016/1/2,3:00:00,11,���쐼,3.1,-12.9,92.4,0,0,11,���쐼,4.1,57,,
2016/1/2,4:00:00,12,��,2.5,-12.8,92.2,0,0,10,�쐼,4,40,,
2016/1/2,5:00:00,12,��,1.9,-12.8,90.3,0,0,12,��,3.9,3,,
2016/1/2,6:00:00,12,��,2.9,-11.5,90.1,0,0,10,�쐼,4.6,2,,
2016/1/2,7:00:00,12,��,2.3,-10.4,91.4,0,0.01,12,��,6,9,,
2016/1/2,8:00:00,13,���k��,1,-8,90.9,0,0.02,12,��,4,35,,
2016/1/2,9:00:00,13,���k��,1.6,-3.2,87.7,0,0.2,3,���k��,2.9,42,,
2016/1/2,10:00:00,14,�k��,3.2,-1.7,90.1,0,0.18,14,�k��,5.5,0,,
2016/1/2,11:00:00,13,���k��,6,-2.1,82.6,0,0.37,14,�k��,8.6,0,,
2016/1/2,12:00:00,14,�k��,4,-2.6,73.9,0,0.48,15,�k�k��,9.5,0,,
2016/1/2,13:00:00,15,�k�k��,2.6,-0.4,71.7,0,0.49,14,�k��,6.6,3,,
2016/1/2,14:00:00,8,��,1.6,-0.3,75.2,0,0.25,10,�쐼,4.6,1,,
2016/1/2,15:00:00,12,��,1.3,-1.9,83.7,0,0.1,12,��,2.4,27,,
2016/1/2,16:00:00,2,�k��,0.6,-3,84.3,0,0.03,10,�쐼,4,29,,
2016/1/2,17:00:00,14,�k��,2.7,-1.3,87.4,0,0,11,���쐼,5.8,41,,
2016/1/2,18:00:00,13,���k��,1.7,-3.8,96.2,0,0,14,�k��,4.1,20,,
2016/1/2,19:00:00,13,���k��,1.5,-4.7,98.2,0,0,10,�쐼,3.6,42,,
2016/1/2,20:00:00,11,���쐼,5.6,2.4,64.9,0,0,11,���쐼,8.2,57,,
2016/1/2,21:00:00,11,���쐼,4.9,2.4,65,0,0,11,���쐼,7.9,51,,
2016/1/2,22:00:00,11,���쐼,7.2,3.8,51.7,0,0,11,���쐼,10.7,50,,
2016/1/2,23:00:00,11,���쐼,4.9,3,51.9,0,0,11,���쐼,10.8,5,,
2016/1/2,0:00:00,12,��,3.8,1.9,57.7,0,0,11,���쐼,9,4,,
2016/1/3,1:00:00,13,���k��,2.7,-0.5,57,0,0,11,���쐼,5.8,46,,
2016/1/3,2:00:00,12,��,1.6,-1.3,69.4,0,0,11,���쐼,4.3,44,,
2016/1/3,3:00:00,11,���쐼,4.3,2.1,47,0,0,11,���쐼,9.1,31,,
2016/1/3,4:00:00,11,���쐼,1.3,-5.1,86,0,0,11,���쐼,5.3,1,,
2016/1/3,5:00:00,12,��,1.8,-9.5,88,0,0,11,���쐼,3.5,19,,
2016/1/3,6:00:00,12,��,2.4,-9.5,88.4,0,0,13,���k��,5.2,46,,
2016/1/3,7:00:00,12,��,1.9,-10.4,90.8,0,0.01,12,��,3.5,52,,
2016/1/3,8:00:00,12,��,2.4,-10.4,84.9,0,0.06,11,���쐼,3.6,19,,
2016/1/3,9:00:00,12,��,3.4,-2.7,59.1,0,0.21,11,���쐼,4.9,57,,
2016/1/3,10:00:00,12,��,5.7,1.5,43.2,0,0.39,12,��,8.6,50,,
2016/1/3,11:00:00,11,���쐼,6,1.9,38.9,0,0.49,11,���쐼,9.5,38,,
2016/1/3,12:00:00,12,��,7.9,2.3,36.6,0,0.52,12,��,11.3,51,,
2016/1/3,13:00:00,12,��,7.6,1.9,42.1,0,0.48,11,���쐼,11.1,7,,
2016/1/3,14:00:00,12,��,6.8,2.1,40.5,0,0.39,11,���쐼,10,38,,
2016/1/3,15:00:00,11,���쐼,7,1.5,42.3,0,0.21,12,��,9.8,39,,
2016/1/3,16:00:00,11,���쐼,5.5,0.9,44.6,0,0.05,12,��,9.7,7,,
2016/1/3,17:00:00,3,���k��,0.6,-2.6,55.4,0,0.01,12,��,9.3,2,,
2016/1/3,18:00:00,15,�k�k��,1.5,-3.3,56.7,0,0,2,�k��,4.3,48,,
2016/1/3,19:00:00,13,���k��,0.9,-4.6,65.7,0,0,12,��,3.3,20,,
2016/1/3,20:00:00,13,���k��,1.4,-6.3,75.1,0,0,14,�k��,3.1,28,,
2016/1/3,21:00:00,10,�쐼,1.3,-7.3,79.9,0,0,12,��,3.2,17,,
2016/1/3,22:00:00,12,��,0.6,-10.3,75.7,0,0,12,��,2.5,3,,
2016/1/3,23:00:00,12,��,1.3,-11.8,86,0,0,12,��,3.1,52,,
2016/1/3,0:00:00,12,��,2.8,-11.5,84.8,0,0,12,��,3.9,51,,
2016/1/4,1:00:00,13,���k��,1.2,-9.9,78,0,0,12,��,3.7,27,,
2016/1/4,2:00:00,12,��,2.6,-12.9,83.1,0,0,12,��,3.5,55,,
2016/1/4,3:00:00,12,��,3,-12.8,81.6,0,0,12,��,4,59,,
2016/1/4,4:00:00,12,��,1.6,-13.2,81.4,0,0,10,�쐼,4.9,25,,
2016/1/4,5:00:00,11,���쐼,3.4,-12.4,80.1,0,0,11,���쐼,4.3,56,,
2016/1/4,6:00:00,12,��,2.2,-12.4,79.9,0,0,11,���쐼,5.3,54,,
2016/1/4,7:00:00,12,��,1.8,-13,84.5,0,0.01,10,�쐼,4,13,,
2016/1/4,8:00:00,11,���쐼,2.8,-11.8,76.7,0,0.07,11,���쐼,4.8,55,,
2016/1/4,9:00:00,12,��,1.7,-8.9,71.3,0,0.27,12,��,4.5,4,,
2016/1/4,10:00:00,9,��쐼,0.3,-2.3,57.9,0,0.38,12,��,3.2,50,,
2016/1/4,11:00:00,12,��,2.9,0.6,40.5,0,0.47,11,���쐼,4.1,59,,
2016/1/4,12:00:00,12,��,4.8,1.2,38.9,0,0.49,10,�쐼,7.4,24,,
2016/1/4,13:00:00,11,���쐼,5,0.9,41.8,0,0.33,11,���쐼,8.6,18,,
2016/1/4,14:00:00,12,��,3.4,0.1,48.1,0,0.19,12,��,7.4,7,,
2016/1/4,15:00:00,11,���쐼,2.8,-0.8,53.7,0,0.16,11,���쐼,4.1,56,,
2016/1/4,16:00:00,12,��,1.9,-3.5,63.7,0,0.05,11,���쐼,3.7,12,,
2016/1/4,17:00:00,12,��,0.8,-5,71.5,0,0,12,��,2.6,4,,
2016/1/4,18:00:00,14,�k��,2,-3.7,67.3,0,0,13,���k��,3.5,50,,
2016/1/4,19:00:00,15,�k�k��,0.4,-6.9,70.6,0,0,13,���k��,2.6,38,,
2016/1/4,20:00:00,14,�k��,2.3,-6.3,76.7,0,0,15,�k�k��,3.5,44,,
2016/1/4,21:00:00,16,�k,0.5,-10.7,83.5,0,0,13,���k��,3.3,1,,
2016/1/4,22:00:00,12,��,2.7,-12.1,87.7,0,0,12,��,3.3,55,,
2016/1/4,23:00:00,11,���쐼,2.5,-10.1,93.5,0,0,11,���쐼,3.8,27,,
2016/1/4,0:00:00,12,��,1.2,-14.5,91,0,0,12,��,2.9,14,,
2016/1/5,1:00:00,12,��,2.7,-13.4,92.6,0,0,12,��,4.7,56,,
2016/1/5,2:00:00,12,��,1.1,-13.7,92.9,0,0,10,�쐼,4,4,,
2016/1/5,3:00:00,12,��,1.8,-14.8,90.6,0,0,10,�쐼,4.2,24,,
2016/1/5,4:00:00,13,���k��,2.8,-13.6,91.1,0,0,13,���k��,4.5,51,,
2016/1/5,5:00:00,13,���k��,2.5,-10.9,93.3,0,0,12,��,4.8,39,,
2016/1/5,6:00:00,13,���k��,2,-10.8,84.2,0,0,13,���k��,6.1,47,,
2016/1/5,7:00:00,12,��,2.3,-10.6,82.9,0,0.01,12,��,5.1,58,,
2016/1/5,8:00:00,12,��,1.5,-11.1,74.7,0,0.1,12,��,5.3,11,,
2016/1/5,9:00:00,13,���k��,1.5,-7.1,69.2,0,0.27,12,��,3.4,5,,
2016/1/5,10:00:00,5,���쓌,1.4,-2,51.5,0,0.41,5,���쓌,2,59,,
2016/1/5,11:00:00,15,�k�k��,0.8,-1.8,41.5,0,0.5,1,�k�k��,3.5,30,,
2016/1/5,12:00:00,13,���k��,1,-1.1,33.8,0,0.54,12,��,2.9,58,,
2016/1/5,13:00:00,12,��,4,-1.1,32.7,0,0.51,12,��,7.9,4,,
2016/1/5,14:00:00,12,��,7.9,-1.5,38.1,0,0.41,12,��,12.4,57,,
2016/1/5,15:00:00,12,��,3.4,-2.4,42.9,0,0.24,12,��,10.9,2,,
2016/1/5,16:00:00,14,�k��,0.5,-3.5,46.8,0,0.08,12,��,8.9,1,,
2016/1/5,17:00:00,5,���쓌,0.6,-7.1,57,0,0.01,12,��,2.5,22,,
2016/1/5,18:00:00,15,�k�k��,0.5,-6.8,61.1,0,0,3,���k��,2.1,5,,
2016/1/5,19:00:00,12,��,1.1,-12.1,69.6,0,0,13,���k��,2.6,22,,
2016/1/5,20:00:00,13,���k��,1.1,-14.8,77.7,0,0,12,��,2.6,44,,
2016/1/5,21:00:00,12,��,1.2,-13.4,78.6,0,0,12,��,3.1,43,,
2016/1/5,22:00:00,12,��,2.1,-13.7,81.5,0,0,12,��,3.3,40,,
2016/1/5,23:00:00,12,��,3.2,-13.7,81.7,0,0,12,��,4.1,55,,
2016/1/5,0:00:00,13,���k��,2.7,-13.2,79.8,0,0,13,���k��,3.5,55,,
2016/1/6,1:00:00,13,���k��,2.1,-14.9,78.1,0,0,13,���k��,3.6,41,,
2016/1/6,2:00:00,13,���k��,1,-14.9,83.2,0,0,12,��,4.2,27,,
2016/1/6,3:00:00,12,��,2.8,-16.1,82.7,0,0,12,��,4.4,18,,
2016/1/6,4:00:00,12,��,1.6,-15.6,82.5,0,0,12,��,3.8,14,,
2016/1/6,5:00:00,13,���k��,1.7,-16.3,82.6,0,0,12,��,3.9,3,,
2016/1/6,6:00:00,13,���k��,2,-15.4,83.9,0,0,12,��,3.9,22,,
2016/1/6,7:00:00,12,��,3.3,-16,84.7,0,0,12,��,4.5,28,,
2016/1/6,8:00:00,12,��,2.2,-14.5,79,0,0.09,13,���k��,4.4,1,,
2016/1/6,9:00:00,13,���k��,1.3,-10.4,70.2,0,0.26,12,��,4.7,21,,
2016/1/6,10:00:00,12,��,1,-7,58.2,0,0.41,14,�k��,2.8,0,,
2016/1/6,11:00:00,6,�쓌,0.4,-1.8,42.9,0,0.51,11,���쐼,2.5,9,,
2016/1/6,12:00:00,11,���쐼,3.7,-0.2,36.2,0,0.54,11,���쐼,6.6,50,,
2016/1/6,13:00:00,1,�k�k��,1.5,1.1,40,0,0.51,12,��,5.6,7,,
2016/1/6,14:00:00,13,���k��,1.4,-0.7,42.1,0,0.29,3,���k��,4.7,12,,
2016/1/6,15:00:00,10,�쐼,5.7,-0.2,52.2,0,0.1,11,���쐼,8.5,48,,
2016/1/6,16:00:00,10,�쐼,5.7,-0.5,55.1,0,0.04,10,�쐼,9.9,2,,
2016/1/6,17:00:00,10,�쐼,3.5,-1.1,55.5,0,0.01,10,�쐼,6.4,3,,
2016/1/6,18:00:00,10,�쐼,4.1,-0.6,52.7,0,0,10,�쐼,8.2,52,,
2016/1/6,19:00:00,11,���쐼,3.6,0.5,53.7,0,0,11,���쐼,9.4,5,,
2016/1/6,20:00:00,12,��,1.2,-3.1,68.5,0,0,10,�쐼,4.8,14,,
2016/1/6,21:00:00,12,��,1.5,-4.2,72,0,0,16,�k,3.3,50,,
2016/1/6,22:00:00,12,��,2.5,-3.9,69.2,0,0,12,��,5.9,35,,
2016/1/6,23:00:00,12,��,4.3,-1,49.9,0,0,12,��,7.9,26,,
2016/1/6,0:00:00,12,��,2.7,-4.2,57.8,0,0,11,���쐼,7.4,10,,
2016/1/7,1:00:00,15,�k�k��,1.7,-5.2,63.9,0,0,12,��,4.3,37,,
2016/1/7,2:00:00,6,�쓌,1,-10.6,74.6,0,0,2,�k��,2.6,36,,
2016/1/7,3:00:00,10,�쐼,1.3,-11.3,81.5,0,0,3,���k��,2.2,6,,
2016/1/7,4:00:00,12,��,1,-14.5,84.4,0,0,13,���k��,1.6,59,,
2016/1/7,5:00:00,12,��,1.7,-13.1,86.9,0,0,12,��,2.8,23,,
2016/1/7,6:00:00,12,��,1.7,-13.3,84.3,0,0,12,��,3.8,58,,
2016/1/7,7:00:00,14,�k��,0.6,-12.6,84.2,0,0.01,12,��,4.4,19,,
2016/1/7,8:00:00,13,���k��,1.9,-11.5,77.1,0,0.09,12,��,4.4,32,,
2016/1/7,9:00:00,13,���k��,1.4,-7.9,64.9,0,0.26,14,�k��,4.3,15,,
2016/1/7,10:00:00,13,���k��,1.3,-4.2,56.5,0,0.41,14,�k��,2.2,56,,
2016/1/7,11:00:00,9,��쐼,0.5,-1.1,47,0,0.51,2,�k��,3.3,11,,
2016/1/7,12:00:00,5,���쓌,0.5,0.9,43.4,0,0.54,1,�k�k��,2.5,33,,
2016/1/7,13:00:00,8,��,1.4,-1,38.9,0,0.35,9,��쐼,3.5,58,,
2016/1/7,14:00:00,15,�k�k��,1.6,-0.6,37.2,0,0.31,15,�k�k��,4.6,10,,
2016/1/7,15:00:00,15,�k�k��,1.4,-1.4,40,0,0.15,14,�k��,4.8,31,,
2016/1/7,16:00:00,14,�k��,1.5,-2.7,42.3,0,0.12,14,�k��,3.9,26,,
2016/1/7,17:00:00,13,���k��,1.6,-8.5,56.2,0,0.01,12,��,2.3,35,,
2016/1/7,18:00:00,12,��,1.7,-10.3,77.9,0,0,12,��,2.5,17,,
2016/1/7,19:00:00,13,���k��,2.3,-9.6,72.5,0,0,12,��,3.6,32,,
2016/1/7,20:00:00,13,���k��,2.5,-13.3,77.4,0,0,12,��,3.4,25,,
2016/1/7,21:00:00,12,��,2.6,-12,80.6,0,0,12,��,3.8,35,,
2016/1/7,22:00:00,13,���k��,2.5,-13.5,81.4,0,0,12,��,4.6,8,,
2016/1/7,23:00:00,12,��,2.9,-13.7,82.7,0,0,12,��,3.6,54,,
2016/1/7,0:00:00,13,���k��,2.9,-13.3,80.6,0,0,12,��,3.7,48,,
2016/1/8,1:00:00,12,��,2.8,-13.3,82.8,0,0,12,��,3.6,57,,
2016/1/8,2:00:00,12,��,2.5,-14,84.3,0,0,13,���k��,5.9,49,,
2016/1/8,3:00:00,11,���쐼,2.2,-15.7,84,0,0,12,��,3.9,29,,
2016/1/8,4:00:00,12,��,2.6,-15.2,86.8,0,0,12,��,4.3,0,,
2016/1/8,5:00:00,12,��,2.4,-15.3,86.3,0,0,12,��,6,13,,
2016/1/8,6:00:00,12,��,1.9,-14.5,86.3,0,0,12,��,4.1,40,,
2016/1/8,7:00:00,12,��,3.3,-15,82.6,0,0.01,12,��,4.4,49,,
2016/1/8,8:00:00,12,��,3.3,-13.7,83.1,0,0.06,12,��,5.5,33,,
2016/1/8,9:00:00,13,���k��,0.4,-10,74.4,0,0.24,7,��쓌,7.3,14,,
2016/1/8,10:00:00,15,�k�k��,1,-7.8,71.7,0,0.27,11,���쐼,2.5,46,,
2016/1/8,11:00:00,15,�É�,0.1,0.5,38.1,0,0.56,13,���k��,2.3,6,,
2016/1/8,12:00:00,14,�k��,1.7,1.4,30.8,0,0.6,1,�k�k��,4.1,5,,
2016/1/8,13:00:00,3,���k��,2,1.6,47.4,0,0.54,4,��,4.1,12,,
2016/1/8,14:00:00,5,���쓌,0.8,0.2,48,0,0.32,2,�k��,2.7,6,,
2016/1/8,15:00:00,16,�k,0.4,-0.5,46.4,0,0.13,13,���k��,5.6,33,,
2016/1/8,16:00:00,13,���k��,0.9,-4.9,53.9,0,0.06,14,�k��,2.8,43,,
2016/1/8,17:00:00,10,�쐼,1.2,-6,59.4,0,0.01,12,��,3.1,35,,
2016/1/8,18:00:00,13,���k��,2,-7.2,69.4,0,0,12,��,5.2,43,,
2016/1/8,19:00:00,12,��,2.7,-8.4,72.2,0,0,12,��,4.4,10,,
2016/1/8,20:00:00,12,��,3.4,-5.4,63.4,0,0,11,���쐼,5.5,57,,
2016/1/8,21:00:00,12,��,3.2,-2.1,51.1,0,0,12,��,8.1,11,,
2016/1/8,22:00:00,2,�k��,0.8,-5.8,66.8,0,0,1,�k�k��,3.6,55,,
2016/1/8,23:00:00,13,���k��,1.5,-9.7,71,0,0,14,�k��,4,4,,
2016/1/8,0:00:00,12,��,2,-10.4,81.3,0,0,13,���k��,3.3,39,,
2016/1/9,1:00:00,12,��,2.5,-10.7,78.2,0,0,11,���쐼,4.4,41,,
2016/1/9,2:00:00,14,�k��,3.2,-7.2,72.9,0,0,13,���k��,4.8,33,,
2016/1/9,3:00:00,13,���k��,2.5,-11.3,83,0,0,13,���k��,5,33,,
2016/1/9,4:00:00,10,�쐼,0.9,-13.4,85.5,0,0,2,�k��,3,6,,
2016/1/9,5:00:00,12,��,2.9,-14.2,90,0,0,12,��,4.7,53,,
2016/1/9,6:00:00,13,���k��,2.8,-13.5,90.6,0,0,11,���쐼,5.4,5,,
2016/1/9,7:00:00,13,���k��,1.6,-14.9,86,0,0.01,12,��,3.7,59,,
2016/1/9,8:00:00,13,���k��,0.9,-12.9,79.2,0,0.09,12,��,3.4,21,,
2016/1/9,9:00:00,12,��,2.7,-10.4,72.5,0,0.27,12,��,3.5,57,,
2016/1/9,10:00:00,13,���k��,0.8,-6.8,67,0,0.42,12,��,3.6,10,,
2016/1/9,11:00:00,12,��,1.2,-1.3,35.9,0,0.51,12,��,4,59,,
2016/1/9,12:00:00,12,��,3,-1.5,38.6,0,0.55,10,�쐼,5.1,22,,
2016/1/9,13:00:00,2,�k��,0.8,0.8,40.4,0,0.52,12,��,6.7,5,,
2016/1/9,14:00:00,14,�k��,1.7,-1.1,40.2,0,0.43,1,�k�k��,3.7,22,,
2016/1/9,15:00:00,15,�k�k��,0.8,-0.7,35.5,0,0.28,15,�k�k��,2.3,36,,
2016/1/9,16:00:00,14,�k��,1,-7.5,55,0,0.1,13,���k��,2.5,42,,
2016/1/9,17:00:00,10,�쐼,2.9,-4.7,51.3,0,0.01,10,�쐼,4.4,55,,
2016/1/9,18:00:00,10,�쐼,1.6,-7.3,54.4,0,0,11,���쐼,3.7,0,,
2016/1/9,19:00:00,13,���k��,1.8,-11.5,70.8,0,0,11,���쐼,2.8,7,,
2016/1/9,20:00:00,13,���k��,2.4,-10,72.6,0,0,11,���쐼,5.2,58,,
2016/1/9,21:00:00,12,��,3.1,-12.4,75.4,0,0,12,��,5.1,42,,
2016/1/9,22:00:00,12,��,2.4,-13,81,0,0,12,��,5.4,8,,
2016/1/9,23:00:00,12,��,2.4,-13.9,80.7,0,0,12,��,4.1,42,,
2016/1/9,0:00:00,14,�k��,1.7,-14.5,84.2,0,0,13,���k��,4.3,4,,
2016/1/10,1:00:00,12,��,1.6,-15.6,83.7,0,0,13,���k��,3.9,15,,
2016/1/10,2:00:00,13,���k��,2.7,-13.1,75.5,0,0,12,��,7.3,35,,
2016/1/10,3:00:00,12,��,2.5,-13.6,75.7,0,0,12,��,5.4,9,,
2016/1/10,4:00:00,11,���쐼,2,-11.6,83.2,0,0,12,��,4.5,20,,
2016/1/10,5:00:00,10,�쐼,1.5,-8.3,84.1,0,0,12,��,4.5,31,,
2016/1/10,6:00:00,14,�k��,1,-8.7,86.9,0,0,10,�쐼,2.5,25,,
2016/1/10,7:00:00,12,��,1.9,-7,84.7,0,0,12,��,4.3,46,,
2016/1/10,8:00:00,13,���k��,2.8,-5.6,83.3,0,0.03,12,��,5,8,,
2016/1/10,9:00:00,14,�k��,3.6,-4.3,70,0,0.12,13,���k��,5.5,39,,
2016/1/10,10:00:00,14,�k��,1.7,-2.2,68.9,0,0.42,14,�k��,6,17,,
2016/1/10,11:00:00,5,���쓌,1.7,1.1,72.4,0,0.5,13,���k��,4.8,16,,
2016/1/10,12:00:00,4,��,3,0.1,74.2,0,0.5,4,��,5,59,,
2016/1/10,13:00:00,3,���k��,2.5,-0.2,70,0,0.43,3,���k��,5.5,46,,
2016/1/10,14:00:00,3,���k��,2.2,-0.2,60.2,0,0.34,4,��,3.9,23,,
2016/1/10,15:00:00,12,��,3.8,-0.9,45.5,0,0.11,12,��,7,46,,
2016/1/10,16:00:00,1,�k�k��,1.3,-2.4,59.3,0,0.04,12,��,7.5,21,,
2016/1/10,17:00:00,8,��,1,-5.8,73.7,0,0.01,11,���쐼,2.2,34,,
2016/1/10,18:00:00,13,���k��,3.1,-4,74,0,0,14,�k��,5.2,51,,
2016/1/10,19:00:00,14,�k��,2.2,-4.9,81.8,0,0,14,�k��,4.6,6,,
2016/1/10,20:00:00,12,��,1,-6.8,77.7,0,0,12,��,4.8,8,,
2016/1/10,21:00:00,12,��,1.1,-9.6,89.3,0,0,15,�k�k��,3.1,21,,
2016/1/10,22:00:00,13,���k��,1.6,-10,83.2,0,0,13,���k��,2.6,12,,
2016/1/10,23:00:00,12,��,3,-9.2,79.2,0,0,11,���쐼,3.8,55,,
2016/1/10,0:00:00,12,��,4.9,-8.4,58.1,0,0,12,��,6.2,55,,
2016/1/11,1:00:00,11,���쐼,1.9,-10.2,62.3,0,0,12,��,6.3,9,,
2016/1/11,2:00:00,14,�k��,0.9,-12.6,65.6,0,0,14,�k��,2.7,45,,
2016/1/11,3:00:00,12,��,2.1,-15.7,76.6,0,0,14,�k��,3.6,25,,
2016/1/11,4:00:00,12,�É�,0.1,-15.9,81.3,0,0,11,���쐼,3.5,10,,
2016/1/11,5:00:00,12,��,2.3,-17.2,86.4,0,0,12,��,3.1,50,,
2016/1/11,6:00:00,12,��,2.8,-16.6,80.3,0,0,14,�k��,3.7,26,,
2016/1/11,7:00:00,12,��,2.9,-16.9,85.9,0,0.01,13,���k��,3.8,38,,
2016/1/11,8:00:00,13,���k��,2.5,-15.2,75.3,0,0.1,12,��,3.3,0,,
2016/1/11,9:00:00,12,��,2.7,-11.3,64.3,0,0.27,12,��,3.3,58,,
2016/1/11,10:00:00,12,��,2,-6.7,44.3,0,0.43,12,��,3.1,0,,
2016/1/11,11:00:00,12,��,2.5,-5,36.6,0,0.52,12,��,4.4,38,,
2016/1/11,12:00:00,13,���k��,2.6,-4.8,33.7,0,0.56,13,���k��,5.1,33,,
2016/1/11,13:00:00,15,�k�k��,2.1,-4.1,36.2,0,0.53,4,��,5.2,2,,
2016/1/11,14:00:00,3,�É�,0.2,-4.1,32.5,0,0.44,2,�k��,2.8,7,,
2016/1/11,15:00:00,5,���쓌,0.7,-4,34.9,0,0.3,6,�쓌,3.1,13,,
2016/1/11,16:00:00,15,�k�k��,0.8,-6.3,43.5,0,0.11,2,�k��,2.1,22,,
2016/1/11,17:00:00,12,��,0.8,-10.4,64.3,0,0.01,12,��,1.2,52,,
2016/1/11,18:00:00,11,���쐼,1.9,-11.3,64,0,0,10,�쐼,2.8,14,,
2016/1/11,19:00:00,12,��,1.5,-15.1,73.8,0,0,12,��,2.1,46,,
2016/1/11,20:00:00,12,��,2.1,-13.5,71.6,0,0,12,��,3.5,43,,
2016/1/11,21:00:00,13,���k��,2.2,-13,71.8,0,0,13,���k��,4,45,,
2016/1/11,22:00:00,12,��,1.3,-15.5,75.5,0,0,13,���k��,5,33,,
2016/1/11,23:00:00,13,���k��,2.5,-13,71.8,0,0,7,��쓌,4.5,58,,
2016/1/11,0:00:00,14,�k��,2.5,-13.6,70.2,0,0,12,��,4.6,11,,
2016/1/12,1:00:00,12,��,3.1,-16,77,0,0,12,��,5,43,,
2016/1/12,2:00:00,12,��,2.4,-16.2,78.7,0,0,13,���k��,4.7,12,,
2016/1/12,3:00:00,13,���k��,2.7,-16.6,79.7,0,0,13,���k��,3.7,1,,
2016/1/12,4:00:00,13,���k��,2.3,-16.7,80.6,0,0,13,���k��,3.6,6,,
2016/1/12,5:00:00,12,��,3,-17.1,79.2,0,0,10,�쐼,4,6,,
2016/1/12,6:00:00,12,��,3.1,-17.6,77.6,0,0,12,��,4,34,,
2016/1/12,7:00:00,12,��,2,-18.3,80.5,0,0.01,12,��,4.2,21,,
2016/1/12,8:00:00,13,���k��,1.8,-17.3,75.8,0,0.1,12,��,3.4,16,,
2016/1/12,9:00:00,12,��,1.6,-13.9,68.9,0,0.27,12,��,3.7,36,,
2016/1/12,10:00:00,12,��,0.6,-10.3,63.5,0,0.43,10,�쐼,3.9,39,,
2016/1/12,11:00:00,2,�k��,0.6,-4.8,45,0,0.53,2,�k��,1.9,30,,
2016/1/12,12:00:00,14,�k��,1.7,-3.7,38.5,0,0.56,14,�k��,3.2,42,,
2016/1/12,13:00:00,3,���k��,1.1,-2.8,41.4,0,0.47,1,�k�k��,3.7,24,,
2016/1/12,14:00:00,5,���쓌,2.7,-4.4,52,0,0.33,5,���쓌,4,58,,
2016/1/12,15:00:00,6,�쓌,1.2,-3.4,46,0,0.25,9,��쐼,4,11,,
2016/1/12,16:00:00,2,�k��,2,-5.2,51.9,0,0.12,7,��쓌,3.7,5,,
2016/1/12,17:00:00,2,�k��,1.3,-6.5,59,0,0.01,1,�k�k��,2.5,17,,
2016/1/12,18:00:00,15,�k�k��,0.6,-13.4,72.4,0,0,14,�k��,12.8,58,,
2016/1/12,19:00:00,13,���k��,2,-12.5,75.9,0,0,11,���쐼,2.6,51,,
2016/1/12,20:00:00,13,���k��,1.8,-12.6,78.2,0,0,13,���k��,3.4,25,,
2016/1/12,21:00:00,12,��,2.6,-12.6,76.5,0,0,12,��,3.8,5,,
2016/1/12,22:00:00,12,��,2.2,-13.6,84.1,0,0,11,���쐼,4.4,21,,
2016/1/12,23:00:00,13,���k��,2.5,-13.3,77.3,0,0,13,���k��,3.3,59,,
2016/1/12,0:00:00,13,���k��,2.2,-14.7,80.2,0,0,2,�k��,3.4,32,,
2016/1/13,1:00:00,12,��,2.5,-16,81.4,0,0,11,���쐼,5.2,4,,
2016/1/13,2:00:00,12,��,2.5,-15.8,81.5,0,0,12,��,3.4,24,,
2016/1/13,3:00:00,12,��,2.5,-16.8,81.3,0,0,13,���k��,3.4,58,,
2016/1/13,4:00:00,13,���k��,2.7,-16.6,81.8,0,0,13,���k��,3.8,30,,
2016/1/13,5:00:00,12,��,2,-17.4,84.5,0,0,13,���k��,3.7,22,,
2016/1/13,6:00:00,12,��,2.1,-18.2,83.1,0,0,12,��,3.9,27,,
2016/1/13,7:00:00,13,���k��,2.6,-17.1,83.8,0,0.01,12,��,4.1,45,,
2016/1/13,8:00:00,12,��,2,-16.5,77.3,0,0.1,13,���k��,4.5,8,,
2016/1/13,9:00:00,13,���k��,0.9,-13.1,69.5,0,0.28,13,���k��,3.8,17,,
2016/1/13,10:00:00,13,���k��,0.3,-9.1,64.1,0,0.43,12,��,2.9,23,,
2016/1/13,11:00:00,5,���쓌,1.7,-2.9,50.8,0,0.53,5,���쓌,2.9,50,,
2016/1/13,12:00:00,4,��,1.4,-1.6,54.9,0,0.56,5,���쓌,3.3,33,,
2016/1/13,13:00:00,4,��,1.9,-1.6,51.8,0,0.53,5,���쓌,3.2,16,,
2016/1/13,14:00:00,5,���쓌,1.7,-2.1,54,0,0.44,4,��,3.4,0,,
2016/1/13,15:00:00,5,���쓌,2.1,-2.9,54.9,0,0.27,5,���쓌,3.9,10,,
2016/1/13,16:00:00,2,�k��,0.9,-5.7,58.4,0,0.09,5,���쓌,2.5,3,,
2016/1/13,17:00:00,1,�k�k��,0.5,-9.3,68.4,0,0.01,1,�k�k��,2.2,32,,
2016/1/13,18:00:00,12,��,1.4,-11.1,74.1,0,0,12,��,2.3,56,,
2016/1/13,19:00:00,11,���쐼,2.4,-10.4,74.3,0,0,10,�쐼,2.9,59,,
2016/1/13,20:00:00,12,��,1.8,-12.2,78.3,0,0,11,���쐼,3.5,8,,
2016/1/13,21:00:00,12,��,1,-11.9,82.5,0,0,11,���쐼,3.2,15,,
2016/1/13,22:00:00,12,��,2,-10.5,81.9,0,0,12,��,3.7,18,,
2016/1/13,23:00:00,12,��,0.5,-9.8,81.5,0,0,13,���k��,2.9,43,,
2016/1/13,0:00:00,14,�k��,1.7,-7.8,76.2,0,0,14,�k��,2.7,54,,
2016/1/14,1:00:00,13,���k��,2.4,-8.1,91.5,0,0,8,��,3.5,53,,
2016/1/14,2:00:00,13,���k��,4.3,-7.9,93.3,0,0,13,���k��,6.8,32,,
2016/1/14,3:00:00,13,���k��,3.6,-7.7,93.2,0,0,16,�k,6.5,18,,
2016/1/14,4:00:00,13,���k��,3.2,-7.3,94.6,0,0,13,���k��,6.4,0,,
2016/1/14,5:00:00,12,��,3.8,-7,94.3,0,0,11,���쐼,7.5,40,,
2016/1/14,6:00:00,12,��,3.5,-6.9,93.7,0,0,13,���k��,6.2,58,,
2016/1/14,7:00:00,13,���k��,3.8,-7,88.3,0,0.01,16,�k,7.6,21,,
2016/1/14,8:00:00,13,���k��,3.1,-6.5,84.3,0,0.09,13,���k��,7.9,35,,
2016/1/14,9:00:00,14,�k��,2.2,-4.7,67.6,0,0.27,14,�k��,6.8,29,,
2016/1/14,10:00:00,14,�k��,5.6,-2.7,50.5,0,0.43,13,���k��,10.4,59,,
2016/1/14,11:00:00,15,�k�k��,3.9,-1.7,47,0,0.53,1,�k�k��,11.2,1,,
2016/1/14,12:00:00,14,�k��,4,-1.7,40.2,0.5,0.56,15,�k�k��,9.1,15,,
2016/1/14,13:00:00,14,�k��,2.7,-1.2,39.4,1,0.54,13,���k��,7.5,6,,
2016/1/14,14:00:00,15,�k�k��,1.7,-1.2,41.2,0.5,0.45,13,���k��,5.3,5,,
2016/1/14,15:00:00,13,���k��,2.6,-1.5,39.4,0,0.3,10,�쐼,4.9,26,,
2016/1/14,16:00:00,13,���k��,2.3,-3.5,44.8,0,0.13,16,�k,4.4,26,,
2016/1/14,17:00:00,12,��,2.3,-9.6,62.2,0.5,0.01,1,�k�k��,4.6,7,,
2016/1/14,18:00:00,11,���쐼,2,-12.4,66.2,0,0,12,��,3.2,30,,
2016/1/14,19:00:00,13,���k��,2.5,-12.8,75.6,0,0,1,�k�k��,3.1,58,,
2016/1/14,20:00:00,12,��,2.4,-15,77.3,0,0,2,�k��,4.1,23,,
2016/1/14,21:00:00,12,��,2,-15.6,85.6,0,0,12,��,3.7,5,,
2016/1/14,22:00:00,14,�k��,1.5,-15.8,78.8,0,0,1,�k�k��,3.4,47,,
2016/1/14,23:00:00,12,��,1.8,-14.4,78.1,0,0,11,���쐼,4.8,10,,
2016/1/14,0:00:00,13,���k��,2.4,-10.8,77.6,0,0,12,��,3.9,38,,
2016/1/15,1:00:00,13,���k��,1.7,-10.9,82.4,0,0,13,���k��,3,11,,
2016/1/15,2:00:00,13,���k��,1.7,-11,79.3,0,0,1,�k�k��,3.1,53,,
2016/1/15,3:00:00,13,���k��,1.4,-11.4,78,0,0,12,��,3.2,10,,
2016/1/15,4:00:00,13,���k��,2.5,-9.3,74.6,0,0,13,���k��,4.6,47,,
2016/1/15,5:00:00,13,���k��,2.5,-8.8,75.4,0,0,13,���k��,4.3,6,,
2016/1/15,6:00:00,13,���k��,2.6,-8.2,78,0,0,13,���k��,4.5,58,,
2016/1/15,7:00:00,13,���k��,2.3,-8.8,75,0,0.01,13,���k��,4.5,26,,
2016/1/15,8:00:00,14,�k��,1.6,-9.1,80,0,0.04,13,���k��,4.2,20,,
2016/1/15,9:00:00,14,�k��,1.9,-8.6,87.7,0,0.08,13,���k��,4.1,30,,
2016/1/15,10:00:00,13,���k��,2.5,-8,87.9,0,0.16,14,�k��,4.3,14,,
2016/1/15,11:00:00,13,���k��,1.9,-6.9,83.1,0,0.27,14,�k��,4.1,13,,
2016/1/15,12:00:00,12,��,2,-5.6,75.1,0,0.47,12,��,3.7,33,,
2016/1/15,13:00:00,3,���k��,0.8,-4.1,82,0,0.32,2,�k��,2.2,37,,
2016/1/15,14:00:00,3,���k��,0.9,-5.4,84.7,0.5,0.22,3,���k��,2.1,41,,
2016/1/15,15:00:00,12,��,2.5,-7.9,87.3,0,0.09,12,��,3.2,41,,
2016/1/15,16:00:00,12,��,0.9,-7.6,91.7,0.5,0.06,12,��,2.7,10,,
2016/1/15,17:00:00,13,���k��,2.7,-6.6,80.2,0,0.01,12,��,3.6,56,,
2016/1/15,18:00:00,12,��,1.8,-8.1,87.7,0,0,13,���k��,3.5,0,,
2016/1/15,19:00:00,12,��,1.8,-7.6,88.2,0,0,13,���k��,3.1,46,,
2016/1/15,20:00:00,12,��,2,-7.9,82.7,0,0,13,���k��,4.2,17,,
2016/1/15,21:00:00,13,���k��,1.6,-8.2,84,0,0,13,���k��,3.4,3,,
2016/1/15,22:00:00,12,��,1.2,-12.1,91.8,0,0,13,���k��,2.9,27,,
2016/1/15,23:00:00,12,��,2,-13.2,92.9,0,0,12,��,3.2,18,,
2016/1/15,0:00:00,12,��,1.4,-14.7,87.9,0,0,13,���k��,4.5,16,,
2016/1/16,1:00:00,12,��,2.5,-17.5,87.6,0,0,10,�쐼,4,11,,
2016/1/16,2:00:00,13,���k��,2,-11.7,90.6,0,0,2,�k��,4.3,20,,
2016/1/16,3:00:00,15,�k�k��,1,-14.8,91.2,0,0,14,�k��,4,1,,
2016/1/16,4:00:00,12,��,2.2,-15.6,88.6,0,0,16,�k,4,54,,
2016/1/16,5:00:00,12,��,2.7,-15.5,91,0,0,13,���k��,3.8,0,,
2016/1/16,6:00:00,12,��,2.4,-16.4,91.5,0,0,16,�k,16.8,13,,
2016/1/16,7:00:00,13,���k��,1.9,-15.5,88.6,0,0.01,12,��,3.9,35,,
2016/1/16,8:00:00,12,��,2.9,-14.1,91.3,0,0.1,12,��,4.3,55,,
2016/1/16,9:00:00,13,���k��,2.1,-11.6,88.7,0,0.27,12,��,3.4,18,,
2016/1/16,10:00:00,13,���k��,1.8,-8.9,79.3,0,0.43,12,��,2.5,51,,
2016/1/16,11:00:00,3,���k��,1.8,-3.7,71.9,0,0.53,2,�k��,2.5,49,,
2016/1/16,12:00:00,5,���쓌,1.4,-3,68.7,0,0.57,5,���쓌,2.6,40,,
2016/1/16,13:00:00,4,��,1.2,-1.7,66.5,0,0.54,4,��,2.6,25,,
2016/1/16,14:00:00,6,�쓌,1.3,-3.3,68.4,0,0.46,5,���쓌,2.3,28,,
2016/1/16,15:00:00,4,��,0.9,-3.4,67.4,0,0.31,5,���쓌,2.1,44,,
2016/1/16,16:00:00,1,�k�k��,0.7,-7.6,81,0,0.14,4,��,1.3,0,,
2016/1/16,17:00:00,12,��,0.9,-11.1,81.8,0,0.01,2,�k��,2.5,39,,
2016/1/16,18:00:00,13,���k��,1.3,-10.1,83,0,0,12,��,2.6,27,,
2016/1/16,19:00:00,12,��,2.3,-11.4,87.6,0,0,13,���k��,3.2,55,,
2016/1/16,20:00:00,13,���k��,2.6,-13.8,85.6,0,0,12,��,4.1,49,,
2016/1/16,21:00:00,13,���k��,1.3,-14.8,89.9,0,0,12,��,3.8,34,,
2016/1/16,22:00:00,12,��,1.9,-15.4,86.5,0,0,12,��,3.4,41,,
2016/1/16,23:00:00,12,��,1.9,-17.4,87.9,0,0,8,��,3.1,40,,
2016/1/16,0:00:00,12,��,2.1,-13.2,94.3,0,0,16,�k,5.8,58,,
2016/1/17,1:00:00,11,���쐼,2.4,-15.7,85.4,0,0,12,��,5.6,0,,
2016/1/17,2:00:00,13,���k��,2.8,-13.2,87.6,0,0,14,�k��,4.3,44,,